Mackinac Island, MI

3:41 PM EST on February 11, 2016 (GMT -0500)
Mackinac Island

Weather History for KMCD - February, 2012

Change the Weather History Date:

Monday, February 27, 2012

  Actual Average Record
Temperature  
Mean Temperature 30 °F -  
Max Temperature 34 °F 26 °F 42 °F (1983)
Min Temperature 25 °F 15 °F -15 °F (2014)
Degree Days  
Heating Degree Days 36    
Moisture  
Dew Point 24 °F    
Average Humidity 77    
Maximum Humidity 94    
Minimum Humidity 68    
Precipitation  
Precipitation 0.00 in - - ()
Sea Level Pressure  
Sea Level Pressure 29.99 in    
Wind  
Wind Speed 9 mph (West)    
Max Wind Speed 20 mph    
Max Gust Speed 31 mph    
Visibility 9 miles    
Events Snow    
Averages and records for this station are not official NWS values.
T = Trace of Precipitation, MM = Missing Value Source: NWS Daily Summary

Daily Weather History Graph

Daily Weather History Graph

Search for Another Location

Airport or City:

Trip Planner

Search our weather history database for the weather conditions in past years. The results will help you decide how hot, cold, wet, or windy it might be!

Date:

Astronomy

Feb. 27, 2012 Rise Set
Actual Time 7:21 AM EST 6:21 PM EST
Civil Twilight 6:51 AM EST 6:51 PM EST
Nautical Twilight 6:17 AM EST 7:26 PM EST
Astronomical Twilight 5:42 AM EST 8:00 PM EST
Moon 9:29 AM EST (2/27) No Moon Set
Length of Visible Light 12h 00m
Length of Day
10h 59m
Waxing Crescent, 29% of the Moon is Illuminated
Feb 27
Waxing Crescent
Feb 29
First Quarter
Mar 8
Full
Mar 14
Last Quarter
Mar 22
New

Hourly Weather History & Observations

Time (EST) Temp. Windchill Dew Point Humidity Pressure Visibility Wind Dir Wind Speed Gust Speed Precip Events Conditions
12:13 AM 31.5 °F 26.8 °F 22.8 °F 70% 29.87 in 10.0 mi South 4.6 mph - N/A   Mostly Cloudy
12:33 AM 32.0 °F 24.8 °F 23.0 °F 69% 29.86 in 10.0 mi South 8.1 mph - N/A   Mostly Cloudy
12:54 AM 31.8 °F 27.3 °F 23.2 °F 70% 29.85 in 10.0 mi South 4.6 mph - N/A   Scattered Clouds
1:13 AM 31.8 °F 27.3 °F 23.9 °F 73% 29.84 in 10.0 mi South 4.6 mph - N/A   Mostly Cloudy
1:54 AM 32.0 °F 27.5 °F 24.6 °F 74% 29.82 in 10.0 mi SSE 4.6 mph - N/A   Overcast
2:13 AM 32.0 °F 27.5 °F 24.8 °F 75% 29.82 in 10.0 mi South 4.6 mph - N/A   Overcast
2:33 AM 32.0 °F 27.5 °F 24.8 °F 75% 29.81 in 10.0 mi South 4.6 mph - N/A   Overcast
2:54 AM 32.0 °F 25.6 °F 25.2 °F 76% 29.80 in 10.0 mi South 6.9 mph - N/A   Overcast
3:13 AM 32.0 °F 27.5 °F 25.2 °F 76% 29.80 in 10.0 mi South 4.6 mph - N/A   Overcast
3:33 AM 32.0 °F - 25.3 °F 76% 29.79 in 10.0 mi Calm Calm - N/A   Overcast
3:54 AM 32.9 °F 26.7 °F 26.1 °F 76% 29.79 in 10.0 mi SW 6.9 mph - N/A   Overcast
4:13 AM 34.9 °F 28.3 °F 28.2 °F 77% 29.79 in 10.0 mi SW 8.1 mph 19.6 mph N/A   Overcast
4:34 AM 34.3 °F 27.0 °F 28.4 °F 79% 29.80 in 10.0 mi SW 9.2 mph 21.9 mph N/A   Overcast
4:54 AM 33.8 °F 27.0 °F 28.9 °F 82% 29.80 in 10.0 mi WSW 8.1 mph 19.6 mph N/A   Overcast
5:13 AM 33.4 °F 28.1 °F 28.4 °F 82% 29.80 in 10.0 mi SW 5.8 mph 20.7 mph N/A   Overcast
5:34 AM 33.3 °F 24.6 °F 29.3 °F 85% 29.80 in 10.0 mi WSW 11.5 mph 24.2 mph N/A   Overcast
5:54 AM 32.4 °F 24.0 °F 30.0 °F 91% 29.81 in 10.0 mi WSW 10.4 mph 20.7 mph N/A   Overcast
6:13 AM 32.0 °F 25.6 °F 30.2 °F 93% 29.81 in 7.0 mi West 6.9 mph 20.7 mph N/A   Overcast
6:34 AM 32.0 °F 23.6 °F 30.2 °F 93% 29.81 in 4.0 mi WSW 10.4 mph 21.9 mph N/A Snow Light Snow
6:54 AM 32.0 °F 25.6 °F 30.4 °F 94% 29.81 in 5.0 mi West 6.9 mph - N/A Snow Light Snow
7:13 AM 32.0 °F 24.2 °F 30.0 °F 92% 29.82 in 5.0 mi West 9.2 mph - N/A Snow Light Snow
7:34 AM 32.0 °F 24.8 °F 29.7 °F 91% 29.82 in 7.0 mi WSW 8.1 mph - N/A   Overcast
7:54 AM 32.0 °F 24.8 °F 29.1 °F 89% 29.82 in 7.0 mi WSW 8.1 mph 17.3 mph N/A Snow Light Snow
8:13 AM 32.2 °F 23.8 °F 28.4 °F 86% 29.83 in 7.0 mi West 10.4 mph 20.7 mph N/A   Overcast
8:34 AM 32.0 °F 24.8 °F 27.3 °F 83% 29.84 in 5.0 mi WSW 8.1 mph 24.2 mph N/A   Haze
8:54 AM 32.0 °F 24.2 °F 27.3 °F 83% 29.85 in 5.0 mi West 9.2 mph 20.7 mph N/A Snow Light Snow
9:13 AM 32.0 °F 24.8 °F 26.8 °F 81% 29.85 in 10.0 mi West 8.1 mph 24.2 mph N/A   Overcast
9:34 AM 32.0 °F 22.1 °F 26.6 °F 80% 29.86 in 7.0 mi West 13.8 mph 21.9 mph N/A   Overcast
9:54 AM 32.2 °F 22.7 °F 26.2 °F 79% 29.86 in 7.0 mi West 12.7 mph 25.3 mph N/A   Overcast
10:13 AM 32.5 °F 23.2 °F 26.1 °F 77% 29.87 in 10.0 mi West 12.7 mph 24.2 mph N/A   Overcast
10:34 AM 32.0 °F 23.6 °F 26.8 °F 81% 29.88 in 4.0 mi West 10.4 mph 25.3 mph N/A   Haze
10:54 AM 31.8 °F 22.8 °F 28.0 °F 86% 29.89 in 3.0 mi West 11.5 mph 23.0 mph N/A Snow Light Snow
11:13 AM 32.0 °F 22.1 °F 28.4 °F 87% 29.89 in 7.0 mi West 13.8 mph 26.5 mph N/A   Overcast
11:34 AM 32.4 °F 24.0 °F 28.4 °F 85% 29.90 in 10.0 mi West 10.4 mph 25.3 mph N/A   Overcast
11:53 AM 32.9 °F 22.4 °F 26.2 °F 76% 29.92 in 10.0 mi NW 16.1 mph 23.0 mph N/A   Overcast
12:13 PM 34.0 °F 24.6 °F 25.2 °F 70% 29.94 in 10.0 mi NW 13.8 mph 20.7 mph N/A   Mostly Cloudy
12:53 PM 32.7 °F 22.1 °F 23.4 °F 68% 29.97 in 10.0 mi NW 16.1 mph 24.2 mph N/A   Overcast
1:13 PM 32.0 °F 21.6 °F 23.7 °F 71% 29.99 in 10.0 mi WNW 15.0 mph 24.2 mph N/A   Overcast
1:34 PM 31.6 °F 20.4 °F 22.8 °F 70% 30.01 in 10.0 mi NW 17.3 mph 31.1 mph N/A   Overcast
1:53 PM 31.6 °F 20.0 °F 22.6 °F 69% 30.02 in 10.0 mi WNW 18.4 mph 27.6 mph N/A   Overcast
2:14 PM 30.7 °F 19.6 °F 22.1 °F 70% 30.03 in 10.0 mi NW 16.1 mph 28.8 mph N/A   Overcast
2:34 PM 30.2 °F 17.8 °F 21.4 °F 70% 30.06 in 10.0 mi NW 19.6 mph 25.3 mph N/A   Overcast
2:53 PM 30.2 °F 20.2 °F 21.0 °F 69% 30.07 in 10.0 mi NW 12.7 mph 19.6 mph N/A   Overcast
3:14 PM 29.3 °F 17.3 °F 20.5 °F 70% 30.09 in 10.0 mi WNW 17.3 mph 23.0 mph N/A   Overcast
3:34 PM 28.4 °F 17.0 °F 19.4 °F 69% 30.12 in 10.0 mi NW 15.0 mph 25.3 mph N/A   Overcast
3:53 PM 28.2 °F 15.9 °F 19.2 °F 69% 30.13 in 10.0 mi WNW 17.3 mph 24.2 mph N/A   Overcast
4:14 PM 28.0 °F 16.1 °F 19.2 °F 70% 30.15 in 10.0 mi NW 16.1 mph 25.3 mph N/A   Overcast
4:34 PM 27.9 °F 15.9 °F 19.0 °F 69% 30.16 in 10.0 mi WNW 16.1 mph 21.9 mph N/A   Overcast
4:53 PM 27.5 °F 15.9 °F 18.5 °F 69% 30.18 in 10.0 mi NW 15.0 mph 28.8 mph N/A   Overcast
5:14 PM 27.0 °F 15.6 °F 17.8 °F 68% 30.20 in 10.0 mi NW 13.8 mph 25.3 mph N/A   Overcast
5:34 PM 26.6 °F 15.7 °F 18.1 °F 70% 30.21 in 10.0 mi NW 12.7 mph 24.2 mph N/A   Overcast
5:53 PM 26.2 °F 15.2 °F 18.3 °F 72% 30.23 in 10.0 mi NW 12.7 mph 20.7 mph N/A   Overcast
6:14 PM 26.2 °F 16.4 °F 19.0 °F 74% 30.25 in 10.0 mi NW 10.4 mph 21.9 mph N/A   Overcast
6:34 PM 26.1 °F 13.6 °F 18.9 °F 74% 30.26 in 10.0 mi NW 16.1 mph 23.0 mph N/A   Overcast
6:53 PM 25.7 °F 13.5 °F 18.7 °F 75% 30.27 in 10.0 mi NW 15.0 mph 23.0 mph N/A Snow Light Snow
7:14 PM 25.7 °F 14.6 °F 18.9 °F 75% 30.28 in 10.0 mi WNW 12.7 mph 21.9 mph N/A   Overcast
7:33 PM 25.9 °F 13.8 °F 18.9 °F 75% 30.30 in 10.0 mi NW 15.0 mph 20.7 mph N/A   Overcast
7:53 PM 25.7 °F 14.6 °F 19.0 °F 76% 30.30 in 10.0 mi WNW 12.7 mph 21.9 mph N/A   Overcast
8:14 PM 26.1 °F 15.0 °F 19.2 °F 75% 30.32 in 10.0 mi NW 12.7 mph 21.9 mph N/A   Overcast
8:33 PM 25.7 °F 15.7 °F 19.2 °F 76% 30.33 in 10.0 mi NW 10.4 mph 16.1 mph N/A   Overcast
8:53 PM 25.7 °F 15.1 °F 18.9 °F 75% 30.35 in 10.0 mi NW 11.5 mph 24.2 mph N/A   Overcast
9:14 PM 25.7 °F 14.0 °F 18.5 °F 74% 30.35 in 10.0 mi NW 13.8 mph 23.0 mph N/A   Overcast
9:33 PM 25.7 °F 15.1 °F 18.3 °F 74% 30.35 in 10.0 mi NW 11.5 mph 17.3 mph N/A   Overcast
9:53 PM 25.5 °F 16.9 °F 18.5 °F 75% 30.35 in 10.0 mi NW 8.1 mph - N/A   Overcast
10:14 PM 25.5 °F 16.9 °F 18.9 °F 76% 30.37 in 10.0 mi NNW 8.1 mph - N/A   Overcast
10:33 PM 25.2 °F 17.3 °F 19.2 °F 78% 30.37 in 10.0 mi North 6.9 mph - N/A   Overcast
10:53 PM 24.4 °F 18.6 °F 19.2 °F 81% 30.38 in 10.0 mi NNW 4.6 mph - N/A   Overcast
11:14 PM 23.7 °F 17.8 °F 18.7 °F 81% 30.38 in 10.0 mi NNW 4.6 mph - N/A   Scattered Clouds
11:33 PM 23.0 °F 17.0 °F 18.5 °F 83% 30.38 in 10.0 mi North 4.6 mph - N/A   Scattered Clouds
11:54 PM 23.0 °F 17.0 °F 18.5 °F 83% 30.39 in 10.0 mi North 4.6 mph - N/A   Scattered Clouds